+ View the NASA Portal
+ Center for Near-Earth Object Studies
IMPORTANT:
The SSD Announcement email list is now available. Major changes are coming in the near future, including possible hostname and/or URL changes. To be notified of such changes, subscribe to this email list.
Please visit
this page
for more details.
Don't show this message again
JPL Small-Body Database Browser
Search:
[
help
]
277619 (2006 BS9)
Classification:
Main-belt Asteroid
SPK-ID:
2277619
[
Ephemeris
|
Orbit Diagram
|
Orbital Elements
|
Mission Design
|
Physical Parameters
|
Discovery Circumstances
|
Close-Approach Data
]
[ show orbit diagram ]
Orbital Elements at Epoch 2458600.5 (2019-Apr-27.0) TDB
Reference:
JPL 10
(heliocentric ecliptic J2000)
Element
Value
Uncertainty (1-sigma)
Units
e
.07153023341622933
7.0687e-08
a
2.593913270274421
2.3284e-08
au
q
2.408370048590237
1.8979e-07
au
i
3.929956519215599
7.5097e-06
deg
node
60.94197911155823
8.0747e-05
deg
peri
181.0292182531194
9.4293e-05
deg
M
324.4054925326032
4.5516e-05
deg
t
p
2458751.373196057422
(2019-Sep-24.87319606)
0.00019279
TDB
period
1525.919430980234
4.18
2.0546e-05
5.625e-08
d
yr
n
.2359233342803296
3.1767e-09
deg/d
Q
2.779456491958605
2.495e-08
au
Orbit Determination Parameters
# obs. used (total)
241
data-arc span
6749 days (18.48 yr)
first obs. used
2000-11-17
last obs. used
2019-05-11
planetary ephem.
DE431
SB-pert. ephem.
SB431-N16
condition code
0
norm. resid. RMS
.62073
source
ORB
producer
Otto Matic
solution date
2019-May-30 08:55:12
Additional Information
Earth MOID
= 1.39533 au
Jupiter MOID
= 2.2156 au
T_jup
= 3.411
[ show covariance matrix ]
[
Ephemeris
|
Orbit Diagram
|
Orbital Elements
|
Mission Design
|
Physical Parameters
|
Discovery Circumstances
|
Close-Approach Data
]
Physical Parameter Table
Parameter
Symbol
Value
Units
Sigma
Reference
Notes
absolute magnitude
H
16.2
n/a
MPO433795
277619 (2006 BS9)
Discovered 2006-Jan-22 by LONEOS at Anderson Mesa
Reference:
20110517/Numbers.arc
Last Updated:
2011-05-20
[ show close-approach data ]
Alternate Designations
2006 BS9
= 2009 WH260
[
Ephemeris
|
Orbit Diagram
|
Orbital Elements
|
Mission Design
|
Physical Parameters
|
Discovery Circumstances
|
Close-Approach Data
]
2019-Dec-06 03:27 UT
(server date/time)
Site Manager:
Ryan S. Park
Webmaster
:
Alan B. Chamberlin